This is the latest recevied weather packets stored in our database for station/object KC9DRE. If no packets are shown the sender has not sent any weather packets the latest 1 day(s).
| Time | Temp. | Humidity | Pressure | Rain* | Wind** | Luminosity | Snow |
|---|---|---|---|---|---|---|---|
| 1778031295 | 15° C | 96% | 1007.3 hPa | 0 mm | - | 0 W/m² | - |
| 1778030991 | 15.56° C | 96% | 1007.2 hPa | 0 mm | - | 0 W/m² | - |
| 1778030687 | 16.11° C | 97% | 1007.3 hPa | 0 mm | - | 0 W/m² | - |
| 1778030384 | 15.56° C | 97% | 1006.9 hPa | 0 mm | - | 0 W/m² | - |
| 1778030082 | 15.56° C | 97% | 1006.8 hPa | 0 mm | - | 0 W/m² | - |
| 1778029779 | 15.56° C | 97% | 1006.9 hPa | 0 mm | - | 0 W/m² | - |
| 1778029478 | 15.56° C | 97% | 1006.8 hPa | 0 mm | - | 0 W/m² | - |
| 1778029173 | 15.56° C | 97% | 1006.7 hPa | 0 mm | - | 0 W/m² | - |
| 1778028872 | 15.56° C | 97% | 1006.7 hPa | 0 mm | - | 0 W/m² | - |
| 1778028566 | 15.56° C | 97% | 1006.8 hPa | 0 mm | - | 0 W/m² | - |
| 1778028265 | 15.56° C | 97% | 1006.9 hPa | 0 mm | - | 0 W/m² | - |
| 1778027960 | 15.56° C | 96% | 1006.8 hPa | 0 mm | - | 0 W/m² | - |
| 1778027657 | 15.56° C | 96% | 1006.9 hPa | 0 mm | - | 0 W/m² | - |
| 1778027354 | 15.56° C | 96% | 1007 hPa | 0 mm | - | 1 W/m² | - |
| 1778027050 | 16.11° C | 96% | 1006.7 hPa | 0 mm | - | 1 W/m² | - |
| 1778026745 | 16.11° C | 96% | 1007 hPa | 0 mm | - | 1 W/m² | - |
| 1778025534 | 16.11° C | 96% | 1006.8 hPa | 0 mm | - | 4 W/m² | - |
| 1778023718 | 16.11° C | 96% | 1007.2 hPa | 0 mm | - | 14 W/m² | - |
| 1778023112 | 16.11° C | 96% | 1006.9 hPa | 0 mm | - | 36 W/m² | - |
| 1778022810 | 16.11° C | 96% | 1007.3 hPa | 0 mm | - | 12 W/m² | - |
| 1778020081 | 16.11° C | 96% | 1007.5 hPa | 0 mm | - | 42 W/m² | - |
| 1778017961 | 16.11° C | 95% | 1008.1 hPa | 0 mm | - | 17 W/m² | - |
| 1778017659 | 16.67° C | 95% | 1008.1 hPa | 0 mm | - | 28 W/m² | - |
| 1778017356 | 16.67° C | 94% | 1008 hPa | 0 mm | - | 15 W/m² | - |
| 1778016750 | 16.67° C | 94% | 1007.6 hPa | 0 mm | - | 37 W/m² | - |
* Rain latest hour (hover to see other rain measurements)
** Current wind speed in m/s (hover to see current wind gust speed)